This is the latest recevied weather packets stored in our database for station/object N8QQQ. If no packets are shown the sender has not sent any weather packets the latest 1 day(s).
| Time | Temp. | Humidity | Pressure | Rain* | Wind** | Luminosity | Snow |
|---|---|---|---|---|---|---|---|
| 1777990624 | 2.78° C | 81% | 1004.1 hPa | 1.27 mm | 1.79 m/s, 353° | 81 W/m² | - |
| 1777990321 | 3.33° C | 81% | 1004.1 hPa | 1.27 mm | 0.45 m/s, 277° | 92 W/m² | - |
| 1777990017 | 3.33° C | 81% | 1003.9 hPa | 0 mm | 0.89 m/s, 334° | 47 W/m² | - |
| 1777989714 | 3.33° C | 81% | 1003.9 hPa | 0 mm | 0.89 m/s, 336° | 160 W/m² | - |
| 1777989410 | 2.78° C | 85% | 1004 hPa | 0 mm | 1.79 m/s, 338° | 83 W/m² | - |
| 1777989107 | 2.22° C | 86% | 1003.9 hPa | 0 mm | 0.45 m/s, 338° | 79 W/m² | - |
| 1777988802 | 2.78° C | 86% | 1004 hPa | 0 mm | 1.79 m/s, 312° | 33 W/m² | - |
| 1777988500 | 2.22° C | 87% | 1003.8 hPa | 0 mm | 1.34 m/s, 274° | 95 W/m² | - |
| 1777988197 | 2.22° C | 90% | 1003.8 hPa | 0 mm | 0.89 m/s, 247° | 78 W/m² | - |
| 1777987893 | 1.67° C | 92% | 1003.7 hPa | 0 mm | 0.89 m/s, 297° | 47 W/m² | - |
| 1777987589 | 1.11° C | 92% | 1003.8 hPa | 0 mm | 0 m/s | 72 W/m² | - |
| 1777987287 | 1.11° C | 91% | 1003.7 hPa | 0 mm | 0.45 m/s, 289° | 46 W/m² | - |
| 1777986984 | 1.67° C | 89% | 1003.9 hPa | 0 mm | 1.34 m/s, 320° | 32 W/m² | - |
| 1777986682 | 2.78° C | 82% | 1003.7 hPa | 0 mm | 1.34 m/s, 274° | 14 W/m² | - |
| 1777986380 | 2.78° C | 80% | 1003.3 hPa | 0 mm | 1.79 m/s, 292° | 75 W/m² | - |
| 1777986078 | 2.78° C | 81% | 1003.3 hPa | 0 mm | 0.89 m/s, 271° | 105 W/m² | - |
| 1777985774 | 2.78° C | 82% | 1003.5 hPa | 0 mm | 0.45 m/s, 332° | 73 W/m² | - |
| 1777985471 | 2.22° C | 85% | 1003.3 hPa | 0 mm | 0.45 m/s, 289° | 99 W/m² | - |
| 1777985167 | 1.11° C | 88% | 1003.4 hPa | 0 mm | 0.45 m/s, 305° | 100 W/m² | - |
| 1777984864 | 0.56° C | 91% | 1003.4 hPa | 0 mm | 1.34 m/s, 283° | 48 W/m² | - |
| 1777984560 | 1.11° C | 91% | 1003.4 hPa | 0 mm | 0.89 m/s, 255° | 24 W/m² | - |
| 1777984256 | 1.11° C | 91% | 1003.6 hPa | 0 mm | 0.89 m/s, 327° | 27 W/m² | - |
| 1777983953 | 0.56° C | 93% | 1003.2 hPa | 0 mm | 0.45 m/s, 303° | 49 W/m² | - |
| 1777983651 | 0.56° C | 94% | 1003.4 hPa | 0 mm | 0.89 m/s, 353° | 30 W/m² | - |
| 1777983347 | 0.56° C | 93% | 1003.2 hPa | 0 mm | 0.89 m/s, 289° | 20 W/m² | - |
* Rain latest hour (hover to see other rain measurements)
** Current wind speed in m/s (hover to see current wind gust speed)